BEIDOU-2 G4

Last updated on Wed Sep 09 2026 00:02:59 GMT+0000 (Coordinated Universal Time)

1 37210U 10057A 26251.65932389 -.00000132 00000+0 00000+0 0 9992 2 37210 3.8487 68.3451 0008006 179.3365 137.4001 1.00270603 58121
UTC large
Height (km)
Speed (km/s)
/
Latitude / Longitude
Inclination (degrees)
Orbital Period (minutes)
Azimuth
Elevation
Range (km)
Doppler Factor

Next 0 passes for location: London (51.5072 / 0.1276)

No passes found over London.
BEIDOU-2 G4